User: anonymous   Login
Location: Unspecified
(0.0000°N, 0.0000°E)
Time: 18:41:20
(UTC+02:00)
Language:

PSLV R/B - Orbit

View from above orbital plane
View from above orbital plane
View from above satellite
View from above satellite

Ground track
Ground track

The orbit data is extracted from the following two-line orbital elements,

1 29713U 07001E   18140.90147506 +.00000188 +00000-0 +28018-4 0  9996
2 29713 097.8110 110.8792 0026561 068.5628 291.8416 14.85285327614190
Epoch (UTC): 20 May 2018 21:38:07
Eccentricity: 0.0026561
inclination: 97.8110°
perigee height: 594 km
apogee height: 631 km
right ascension of ascending node: 110.8792°
argument of perigee: 68.5628°
revolutions per day: 14.85285327
mean anomaly at epoch: 291.8416°
orbit number at epoch: 61419

The dashed part of the orbit path shows where the satellite is in the earth's shadow,  

DLR